Regional Weather Roundup
Issued by NWS

Home | Current Version | Previous Version | Graphics & Text | Print | Product List | Glossary On
Versions: 1 2 3 4 5 6 7 8 9 10 11 12 13 14 15 16 17 18 19 20 21 22 23 24 25 26 27 28 29 30 31 32 33 34 35 36 37 38 39 40 41 42 43 44 45 46 47 48 49 50
000
ASUS45 KBOU 062307
RWRCO

WEATHER ROUNDUP FOR COLORADO
NATIONAL WEATHER SERVICE DENVER/BOULDER CO
500 PM MDT WED MAY 06 2015

NOTE: "FAIR" INDICATES FEW OR NO CLOUDS BELOW 12000 FEET WITH NO
SIGNIFICANT WEATHER AND/OR OBSTRUCTIONS TO VISIBILITY.

COZ001>005-013-030-031-070000-
...NORTHWEST COLORADO...

CITY           SKY/WX    TMP DP  RH WIND       PRES   REMARKS
CRAIG          LGT RAIN  53  44  71 SW16      29.79R
HAYDEN         CLOUDY    46  39  76 N13       29.80R
MEEKER         CLOUDY    51  42  71 E5        29.82F
MOUNT WERNER   NOT AVBL
STEAMBOAT SPGS CLOUDY    51  42  72 W6        29.79R
WALDEN         CLOUDY    50  39  66 SW9       29.81R
$$

COZ006>008-011-070000-
...WEST CENTRAL VALLEYS...

CITY           SKY/WX    TMP DP  RH WIND       PRES   REMARKS
GRAND JUNCTION CLOUDY    56  48  74 E7        29.77F
MONTROSE       PTSUNNY   59  45  59 NW13      29.83S
EAGLE          LGT RAIN  52  43  71 S18G26    29.86R
RIFLE          CLOUDY    53  46  77 E6        29.82F
DELTA          PTSUNNY   60  49  67 E10       29.80F THUNDER
NUCLA          PTSUNNY   55  43  62 N9        29.84F
$$

COZ017>023-064>068-070000-
...SOUTHWEST COLORADO...

CITY           SKY/WX    TMP DP  RH WIND       PRES   REMARKS
DURANGO        PTSUNNY   56  37  49 SW18G28   29.89R
CORTEZ         MOSUNNY   67  38  34 SW15      29.82F
PAGOSA SPRINGS PTSUNNY   58  33  39 SW14      29.90F
TELLURIDE      PTSUNNY   49  33  54 SE9       29.97S
WOLF CREEK PAS NOT AVBL
$$

COZ009-010-012-014-032>034-037-058>063-070000-
...CENTRAL COLORADO...

CITY           SKY/WX    TMP DP  RH WIND       PRES   REMARKS
ASPEN          LGT RAIN  48  41  76 NE5       29.87R
BUENA VISTA    NOT AVBL
COPPER MTN     CLOUDY    37  32  81 W18G25    30.00R THUNDER
BERTHOUD PASS  CLOUDY    30  21  69 W23G32    30.01R WCI  17
COTTONWOOD PAS PTSUNNY   46  34  61 N6        29.90R
GUNNISON       PTSUNNY   55  34  44 W22G31    29.91R
KREMMLING      CLOUDY    52  41  66 SW8       29.84R
LEADVILLE      CLOUDY    44  34  67 N10       29.90F
MONARCH PASS     N/A     32  32 100 MISG      30.10F
SALIDA         PTSUNNY   58  36  44 SW8       29.88S
SUNLIGHT       LGT RAIN  36  36 100 CALM      30.00S VSB 3/4
WILKERSON PASS CLOUDY    34  34 100 SW10G22   29.98R THUNDER WCI  26
$$

COZ069>075-070000-
...SAN LUIS VALLEY/SANGRE DE CRISTO MOUNTAINS...

CITY           SKY/WX    TMP DP  RH WIND       PRES   REMARKS
ALAMOSA        MOSUNNY   57  32  38 SW16      29.85F
LA VETA PASS   PTSUNNY  N/A N/A N/A MISG      29.93F
SAGUACHE       PTSUNNY   46  41  81 CALM      29.88S
$$

COZ035-036-038>040-070000-
...NORTHERN COLORADO FRONT RANGE...

CITY           SKY/WX    TMP DP  RH WIND       PRES   REMARKS
DENVER INTL AP CLOUDY    62  44  51 CALM      29.70R
DMNS CITY PARK   N/A     61  46  57 S7        29.70S
AURORA         CLOUDY    58  49  72 SE7       29.72R
FRONT RANGE AP PTSUNNY   63  48  59 CALM      29.72R THUNDER
ERIE MUNI ARPT CLOUDY    61  48  62 N5        29.69R
BOULDER MUN AP CLOUDY    61  45  55 N3        29.70R
CENTENNIAL     CLOUDY    55  50  83 SE10      29.73R
BROOMFIELD     CLOUDY    61  48  63 N9        29.72R
FORT COLLINS   CLOUDY    57  48  72 W6        29.69R
LONGMONT       CLOUDY    66  47  50 SW3       29.70S
$$

COZ041-046-047-076>085-087-088-070000-
...PIKES PEAK/PALMER DIVIDE AND SOUTHERN FOOTHILLS...

CITY           SKY/WX    TMP DP  RH WIND       PRES   REMARKS
COLO. SPRINGS  TSTM      52  46  80 NE17      29.75F
A. F. ACADEMY  CLOUDY    50  46  85 E10       29.76S
ELLICOTT       TSTM     N/A N/A N/A W10       29.77R
FALCON         TSTM      49  44  85 CALM      29.82R
FORT CARSON    CLOUDY    51  47  87 N10       29.73R
LIMON          CLOUDY    60  47  61 SW7       29.71S
MONUMENT HILL  NOT AVBL
TRINIDAD       CLOUDY    63  45  51 NW16      29.72R
$$

COZ042>045-048>051-090-091-070000-
...NORTHEAST COLORADO...

CITY           SKY/WX    TMP DP  RH WIND       PRES   REMARKS
GREELEY ARPT   CLOUDY    66  64  94 NW6       29.66F
AKRON          LGT RAIN  57  55  93 W9        29.64R FOG
BURLINGTON     CLOUDY    68  54  60 SW18      29.67R
WRAY           PTSUNNY   60  56  87 SW10      29.60F
STERLING       PTSUNNY   61  55  82 N12       29.61R
HOLYOKE        NOT AVBL
FORT MORGAN    PTSUNNY   67  47  47 NW15      29.65R
$$

COZ086-089-092>099-070000-
...SOUTHEAST COLORADO...

CITY           SKY/WX    TMP DP  RH WIND       PRES   REMARKS
PUEBLO         LGT RAIN  57  48  72 N6        29.65F
LA JUNTA       TSTM      65  46  50 E7G22     29.62R
LAMAR          SUNNY     77  51  40 CALM      29.59F
SPRINGFIELD      N/A     72  48  42 E6        29.63F
$$



USA.gov is the U.S. government's official web portal to all federal, state and local government web resources and services.